Content
SEND FEEDBACK

Daily
Averages
Monthly
Summary
United States of America

FORT LEE, NEW JERSEY


Home > North America > United States > New Jersey
Elevation: 128 feet     Latitude: 40 46N     Longitude: 073 58W

WEATHER
 
SELECT A DAY
Number of Records: 148,168;   Date Range: 11/1/95 - 8/12/14
 
SHARE

PRINT THIS DATA

[ ← Previous Day ]
WEATHER ALMANAC - FEBRUARY 4, 2013
[ Next Day → ]
[ °C ]   °F
Weather ElementAverageHighLow
Temperature27 °F28.9 °F (1:51 pm)23 °F (6:51 am)
Dewpoint8.8 °F16 °F (1:51 am)6.1 °F (12:51 pm)
Humidity46.6 %63 % (1:51 am)39 % (12:51 pm)
Barometer29.93 in29.97 in (7:51 pm)29.81 in (1:51 am)
Wind Speed7.3 mph13.8 mph (10:51 am)
Wind Gust32.2 mph (2:51 am)
Weather ElementAverage
Visibility10 mi
Wind DirectionESE (115.5 °)

Weather ElementTotal
Precipitation---
Heating Degree Days39.1 (Base 65)
Averaged from 22 records on February 4, 2013
WEATHER CONDITIONS BREAKOUT
WIND DIRECTION BREAKOUT
WEATHER BY HOUR - FEBRUARY 4, 2013
[ °C ]   °F
Local TimeTemperatureDewpointHumidityBarometerVisibilityWind DirectionWind SpeedGust SpeedPrecipitationEventsConditions
1:51 AM27.0 °F16.0 °F63 %29.81 in10.0 miWNW (300°)10.4 mph20.7 mphMostly Cloudy
2:51 AM26.1 °F12.0 °F55 %29.83 in10.0 miWNW (300°)11.5 mph32.2 mphClear
3:51 AM25.0 °F10.0 °F53 %29.84 in10.0 miVariable6.9 mph18.4 mphClear
5:51 AM24.8 °F8.6 °F50 %29.92 in10.0 miVariable6.9 mph21.9 mphClear
6:51 AM23.0 °F8.1 °F53 %29.92 in10.0 miWest (280°)8.1 mph19.6 mphClear
7:51 AM23.0 °F9.0 °F55 %29.94 in10.0 miNorthClear
8:51 AM24.1 °F8.1 °F51 %29.95 in10.0 miWNW (290°)8.1 mphClear
9:51 AM25.0 °F7.0 °F46 %29.96 in10.0 miWNW (300°)8.1 mph18.4 mphClear
10:51 AM27.0 °F7.0 °F43 %29.96 in10.0 miWest (270°)13.8 mph21.9 mphPartly Cloudy
11:51 AM28.0 °F7.0 °F41 %29.94 in10.0 miVariable5.8 mph20.7 mphPartly Cloudy
12:51 PM28.0 °F6.1 °F39 %29.94 in10.0 miVariable3.5 mph20.7 mphMostly Cloudy
1:51 PM28.9 °F7.0 °F40 %29.92 in10.0 miWest (260°)8.1 mphMostly Cloudy
2:51 PM28.9 °F8.1 °F41 %29.91 in10.0 miNorthClear
3:51 PM28.9 °F7.0 °F40 %29.92 in10.0 miVariable5.8 mphPartly Cloudy
4:51 PM28.0 °F7.0 °F41 %29.93 in10.0 miNorthClear
5:51 PM28.0 °F7.0 °F41 %29.94 in10.0 miVariable5.8 mph18.4 mphClear
6:51 PM28.0 °F8.1 °F43 %29.96 in10.0 miVariable6.9 mphClear
7:51 PM28.0 °F8.1 °F43 %29.97 in10.0 miWest (260°)8.1 mphClear
8:51 PM28.0 °F8.1 °F43 %29.97 in10.0 miWest (280°)10.4 mphMostly Cloudy
9:51 PM28.0 °F10.0 °F47 %29.97 in10.0 miCalmMostly Cloudy
10:51 PM28.9 °F10.9 °F47 %29.97 in10.0 miVariable3.5 mphOvercast
11:51 PM28.9 °F12.9 °F51 %29.96 in10.0 miVariable6.9 mph17.3 mphOvercast
Hourly data recorded from KNYC, located miles away from Fort Lee, New Jersey







STORIES FROM OUR PARTNERS